When you browse on this site, cookies collect data to enhance your experience and personalize the content and advertising you see.
Visit our Privacy Policy to learn more. By continuing to use the site, you agree to this use of cookies and data.
  • In Hungary
  • List of Countries
  • For 7 days
  • Water Temperature
  • Satellite Maps
  • Weather Map
  • News
  • Weather Widgets
  • user-avatar
    Login

    Hourly Weather Dromore

    Today, 23 January, Wednesday

    Time Temperature Precipitation Wind Pressure Humidity
    00:00 -1°C° 0 mm 3 mps 739 mmHg 84%
    01:00 -1°C° 0 mm 3 mps 740 mmHg 84%
    02:00 -1°C° 0 mm 3 mps 740 mmHg 85%
    03:00 -1°C° 0 mm 3 mps 740 mmHg 85%
    04:00 -1°C° 0 mm 3 mps 741 mmHg 85%
    05:00 -1°C° 0 mm 3 mps 741 mmHg 86%
    06:00 -1°C° 0 mm 3 mps 741 mmHg 86%
    07:00 -1°C° 0 mm 2 mps 742 mmHg 87%
    08:00 -1°C° 0 mm 2 mps 742 mmHg 87%
    09:00 -1°C° 0 mm 2 mps 742 mmHg 88%
    10:00 +1°C° 0 mm 2 mps 743 mmHg 85%
    11:00 +2°C° 0 mm 3 mps 743 mmHg 81%
    12:00 +3°C° 0 mm 3 mps 743 mmHg 78%
    13:00 +3°C° 0 mm 3 mps 743 mmHg 79%
    14:00 +3°C° 0 mm 3 mps 743 mmHg 81%
    15:00 +4°C° 0 mm 3 mps 743 mmHg 83%
    16:00 +4°C° 0 mm 2 mps 743 mmHg 86%
    17:00 +4°C° 0 mm 2 mps 743 mmHg 90%
    18:00 +3°C° 0 mm 2 mps 744 mmHg 94%
    19:00 +3°C° 0 mm 2 mps 744 mmHg 95%
    20:00 +2°C° 0 mm 2 mps 744 mmHg 96%
    21:00 +2°C° 0 mm 2 mps 744 mmHg 97%
    22:00 +3°C° 0 mm 2 mps 744 mmHg 97%
    23:00 +3°C° 0 mm 2 mps 745 mmHg 97%

    Tomorrow, 24 January, Thursday

    Time Temperature Precipitation Wind Pressure Humidity
    00:00 +3°C° 0 mm 2 mps 745 mmHg 97%
    01:00 +3°C° 0 mm 2 mps 745 mmHg 97%
    02:00 +3°C° 0 mm 2 mps 745 mmHg 97%
    03:00 +2°C° 0 mm 3 mps 746 mmHg 96%
    04:00 +2°C° 0 mm 3 mps 746 mmHg 95%
    05:00 +3°C° 0 mm 2 mps 746 mmHg 95%
    06:00 +3°C° 0 mm 2 mps 747 mmHg 94%
    07:00 +3°C° 0 mm 2 mps 747 mmHg 93%
    08:00 +3°C° 0 mm 2 mps 747 mmHg 92%
    09:00 +3°C° 0 mm 2 mps 748 mmHg 91%
    10:00 +4°C° 0.2 mm 2 mps 748 mmHg 91%
    11:00 +5°C° 0.2 mm 1 mps 748 mmHg 92%
    12:00 +5°C° 0.2 mm 1 mps 748 mmHg 92%
    13:00 +5°C° 0.2 mm 1 mps 749 mmHg 92%
    14:00 +5°C° 0.2 mm 1 mps 749 mmHg 93%
    15:00 +5°C° 0.2 mm 1 mps 749 mmHg 93%
    16:00 +4°C° 0.7 mm 2 mps 749 mmHg 94%
    17:00 +4°C° 0.7 mm 2 mps 749 mmHg 95%
    18:00 +4°C° 0.7 mm 2 mps 749 mmHg 96%
    19:00 +5°C° 0.3 mm 2 mps 749 mmHg 96%
    20:00 +5°C° 0.3 mm 2 mps 749 mmHg 97%
    21:00 +6°C° 0.3 mm 1 mps 750 mmHg 97%
    22:00 +6°C° 0.1 mm 2 mps 750 mmHg 97%
    23:00 +7°C° 0.1 mm 2 mps 750 mmHg 97%

    Day after tomorrow, 25 January, Friday

    Time Temperature Precipitation Wind Pressure Humidity
    00:00 +7°C° 0.1 mm 3 mps 750 mmHg 97%
    01:00 +7°C° 0.1 mm 3 mps 750 mmHg 97%
    02:00 +7°C° 0.1 mm 4 mps 750 mmHg 96%
    03:00 +7°C° 0.1 mm 4 mps 750 mmHg 96%
    04:00 +7°C° 0 mm 4 mps 750 mmHg 96%
    05:00 +7°C° 0 mm 4 mps 750 mmHg 96%
    06:00 +7°C° 0 mm 4 mps 750 mmHg 95%
    07:00 +7°C° 0 mm 4 mps 750 mmHg 96%
    08:00 +7°C° 0 mm 4 mps 750 mmHg 96%
    09:00 +8°C° 0 mm 3 mps 751 mmHg 96%
    10:00 +8°C° 0 mm 4 mps 751 mmHg 94%
    11:00 +8°C° 0 mm 5 mps 751 mmHg 93%
    12:00 +9°C° 0 mm 6 mps 751 mmHg 91%
    13:00 +9°C° 0 mm 6 mps 751 mmHg 91%
    14:00 +9°C° 0 mm 6 mps 750 mmHg 91%
    15:00 +9°C° 0 mm 6 mps 750 mmHg 90%
    16:00 +9°C° 0 mm 6 mps 749 mmHg 90%
    17:00 +9°C° 0 mm 6 mps 748 mmHg 91%
    18:00 +9°C° 0 mm 7 mps 747 mmHg 91%
    19:00 +9°C° 0.2 mm 7 mps 747 mmHg 91%
    20:00 +9°C° 0.2 mm 7 mps 746 mmHg 92%
    21:00 +9°C° 0.2 mm 7 mps 745 mmHg 92%
    22:00 +9°C° 0.6 mm 7 mps 744 mmHg 92%
    23:00 +9°C° 0.6 mm 7 mps 743 mmHg 92%

    26 January, Saturday

    Time Temperature Precipitation Wind Pressure Humidity
    00:00 +9°C° 0.6 mm 7 mps 742 mmHg 91%
    01:00 +6°C° 1.4 mm 7 mps 742 mmHg 91%
    02:00 +4°C° 1.4 mm 6 mps 742 mmHg 90%
    03:00 +3°C° 1.4 mm 6 mps 742 mmHg 89%
    04:00 +2°C° 0.1 mm 6 mps 742 mmHg 86%
    05:00 +2°C° 0.1 mm 6 mps 743 mmHg 83%
    06:00 0°C° 0.1 mm 7 mps 744 mmHg 80%
    07:00 0°C° 0 mm 7 mps 744 mmHg 81%
    08:00 0°C° 0 mm 7 mps 744 mmHg 81%
    09:00 0°C° 0 mm 7 mps 745 mmHg 81%
    10:00 +2°C° 0.1 mm 7 mps 745 mmHg 78%
    11:00 +3°C° 0.1 mm 7 mps 745 mmHg 76%
    12:00 +2°C° 0.1 mm 8 mps 746 mmHg 73%
    13:00 +2°C° 0.1 mm 8 mps 746 mmHg 72%
    14:00 +1°C° 0.1 mm 9 mps 746 mmHg 70%
    15:00 +1°C° 0.1 mm 10 mps 746 mmHg 68%
    16:00 0°C° 0.1 mm 9 mps 747 mmHg 68%
    17:00 0°C° 0.1 mm 9 mps 747 mmHg 68%
    18:00 0°C° 0.1 mm 9 mps 748 mmHg 67%
    19:00 0°C° 0 mm 9 mps 748 mmHg 68%
    20:00 0°C° 0 mm 9 mps 748 mmHg 68%
    21:00 0°C° 0 mm 9 mps 748 mmHg 68%
    22:00 0°C° 0 mm 9 mps 749 mmHg 68%
    23:00 0°C° 0 mm 9 mps 749 mmHg 68%

    27 January, Sunday

    Time Temperature Precipitation Wind Pressure Humidity
    00:00 0°C° 0 mm 9 mps 749 mmHg 68%
    01:00 0°C° 0 mm 9 mps 749 mmHg 69%
    02:00 -1°C° 0 mm 9 mps 749 mmHg 71%
    03:00 -1°C° 0 mm 9 mps 750 mmHg 72%
    04:00 -1°C° 0 mm 9 mps 750 mmHg 72%
    05:00 -1°C° 0 mm 9 mps 750 mmHg 72%
    06:00 -1°C° 0 mm 9 mps 750 mmHg 72%
    07:00 -1°C° 0 mm 9 mps 751 mmHg 71%
    08:00 -1°C° 0 mm 9 mps 751 mmHg 70%
    09:00 -1°C° 0 mm 9 mps 751 mmHg 70%
    10:00 0°C° 0 mm 9 mps 752 mmHg 68%
    11:00 0°C° 0 mm 9 mps 752 mmHg 67%
    12:00 +1°C° 0 mm 10 mps 753 mmHg 65%
    13:00 +1°C° 0 mm 9 mps 753 mmHg 66%
    14:00 +1°C° 0 mm 9 mps 753 mmHg 66%
    15:00 +1°C° 0 mm 8 mps 753 mmHg 66%
    16:00 0°C° 0 mm 7 mps 753 mmHg 68%
    17:00 -1°C° 0 mm 7 mps 754 mmHg 71%
    18:00 -1°C° 0 mm 6 mps 754 mmHg 73%
    19:00 -1°C° 0 mm 6 mps 754 mmHg 73%
    20:00 0°C° 0 mm 5 mps 755 mmHg 74%
    21:00 0°C° 0 mm 5 mps 755 mmHg 75%
    22:00 0°C° 0 mm 5 mps 755 mmHg 76%
    23:00 0°C° 0 mm 5 mps 756 mmHg 76%

    28 January, Monday

    Time Temperature Precipitation Wind Pressure Humidity
    00:00 0°C° 0 mm 5 mps 756 mmHg 76%
    01:00 -1°C° 0 mm 4 mps 756 mmHg 78%
    02:00 -1°C° 0 mm 4 mps 756 mmHg 80%
    03:00 0°C° 0 mm 3 mps 756 mmHg 82%
    04:00 0°C° 0 mm 3 mps 756 mmHg 81%
    05:00 0°C° 0 mm 3 mps 756 mmHg 81%
    06:00 +1°C° 0 mm 3 mps 756 mmHg 81%
    07:00 0°C° 0 mm 3 mps 757 mmHg 83%
    08:00 +1°C° 0 mm 2 mps 757 mmHg 85%
    09:00 +1°C° 0 mm 2 mps 757 mmHg 87%
    10:00 +2°C° 0 mm 2 mps 757 mmHg 84%
    11:00 +3°C° 0 mm 2 mps 757 mmHg 80%
    12:00 +4°C° 0 mm 2 mps 757 mmHg 76%
    13:00 +5°C° 0 mm 2 mps 757 mmHg 77%
    14:00 +5°C° 0 mm 2 mps 757 mmHg 78%
    15:00 +5°C° 0 mm 2 mps 756 mmHg 79%
    16:00 +5°C° 0.2 mm 2 mps 756 mmHg 82%
    17:00 +4°C° 0.2 mm 2 mps 756 mmHg 85%
    18:00 +3°C° 0.2 mm 3 mps 756 mmHg 88%
    19:00 +3°C° 0.2 mm 3 mps 756 mmHg 91%
    20:00 +3°C° 0.2 mm 3 mps 756 mmHg 93%
    21:00 +3°C° 0.2 mm 3 mps 756 mmHg 95%
    22:00 +3°C° 0 mm 3 mps 756 mmHg 96%
    23:00 +3°C° 0 mm 3 mps 756 mmHg 96%
    Show more